Theta_e
320 319 318 318 318 317 317 317 317 317 317 319 321 322 321 321 326 326 320 317 316 313 311 309 308 308 307 307 307 306 306 306 305 305 305 304 305 305 305 306 307 308 309 310 312 314 315 317 317 317 318 318 318 318 318 319 321 322 323 323 324 326 327 328 328 329 330 331 331 331 329 329 328 328 328 328 327 325 322 322 323 323 323 325 324 323 323
319 317 316 315 315 315 315 315 314 314 314 315 316 318 318 318 319 318 315 314 312 310 309 307 307 307 306 306 306 306 306 305 305 305 304 304 303 303 303 304 305 306 307 308 309 311 313 315 315 316 316 317 317 317 317 318 320 322 322 322 323 324 326 327 328 329 329 330 331 330 329 328 328 328 328 327 326 324 322 323 324 323 323 324 324 323 323
318 316 315 314 313 313 314 314 313 313 314 314 313 314 315 315 315 313 312 312 310 308 307 307 306 306 306 306 305 305 305 305 305 304 304 303 303 302 302 303 305 306 307 308 309 309 311 312 314 314 315 315 316 316 317 318 319 321 322 323 323 324 324 326 327 328 328 328 330 330 329 329 328 328 327 325 324 324 325 325 324 322 322 323 323 323 323
317 315 314 314 314 314 314 314 312 312 313 313 312 311 312 314 315 313 313 312 310 307 307 306 306 305 305 305 305 305 304 304 304 303 303 303 303 302 302 302 304 305 306 308 308 308 309 310 312 313 313 314 315 316 316 317 318 320 321 322 324 324 324 325 326 326 326 327 328 329 329 329 329 328 326 325 323 324 325 325 324 322 322 321 321 322 322
317 315 314 316 318 320 317 314 313 312 311 311 310 310 310 311 312 312 313 311 308 307 306 306 305 305 305 304 304 304 303 303 303 302 302 302 302 302 302 301 302 303 305 307 308 308 309 309 309 310 312 313 314 314 315 315 316 318 319 321 322 323 324 325 325 326 326 326 327 328 328 328 328 328 327 325 323 323 324 324 323 322 321 320 320 321 321
319 315 315 318 320 320 316 312 312 311 310 309 310 310 309 309 309 309 309 308 307 306 305 305 305 304 303 303 303 302 302 302 301 301 301 301 302 302 301 301 301 301 303 305 306 307 308 308 308 309 311 312 312 313 314 314 315 316 317 318 320 321 323 324 324 325 325 325 326 327 328 328 328 327 327 325 323 323 324 323 322 322 321 320 320 320 319
319 315 316 319 319 315 312 310 309 309 308 308 308 308 308 308 308 307 307 306 305 305 304 304 303 303 302 301 301 300 300 300 300 299 299 300 301 301 301 300 300 301 301 303 304 305 306 307 308 310 310 311 312 313 313 314 315 314 315 316 317 318 320 322 323 323 324 324 325 326 327 328 327 326 326 324 323 322 322 322 321 320 320 319 320 320 319
317 316 316 318 316 312 311 311 310 309 309 309 309 309 308 307 307 307 307 306 305 305 304 303 302 301 301 301 301 300 299 299 298 298 298 298 299 300 301 301 300 300 300 301 302 303 304 305 307 308 309 309 310 312 312 313 314 314 314 315 315 315 315 318 320 322 323 324 324 324 327 327 326 324 323 322 322 322 322 321 320 319 319 319 319 319 319
314 315 315 314 313 312 311 311 310 310 310 310 310 310 308 306 307 307 307 306 305 304 303 302 302 301 301 301 301 301 300 300 299 299 298 298 298 298 299 299 300 300 300 300 300 301 302 303 304 306 307 307 309 310 311 312 312 313 313 314 314 314 313 314 316 319 321 323 322 322 324 326 324 323 321 320 320 321 321 320 319 319 319 319 319 319 318
312 313 313 313 314 313 312 311 310 309 310 310 309 309 308 306 306 307 307 306 306 305 304 303 303 303 302 301 301 301 300 300 299 298 298 298 298 298 298 298 299 299 299 300 300 300 301 301 302 303 304 305 306 308 309 309 310 311 312 312 312 313 313 313 313 314 315 317 318 318 321 323 321 321 320 319 319 319 320 319 319 319 319 318 318 318 317
313 314 314 314 314 313 311 309 308 308 309 310 309 310 309 306 305 306 306 305 305 305 304 304 304 304 303 302 301 301 300 299 298 298 297 297 298 298 298 298 298 298 299 299 299 300 300 300 300 301 302 303 305 305 306 306 307 308 308 309 309 310 311 312 313 313 312 312 312 313 318 321 320 320 320 319 318 318 319 319 319 318 318 318 318 317 315
314 314 313 312 312 310 308 307 307 308 309 309 311 314 311 305 303 305 304 303 303 303 303 303 303 303 302 301 301 300 299 299 298 298 298 297 297 298 298 298 298 298 298 299 299 299 299 300 300 300 301 302 302 302 302 303 303 303 304 305 306 307 309 310 311 312 313 312 311 310 313 317 319 319 319 318 318 318 318 318 318 317 317 317 317 315 314
312 311 310 310 310 308 307 307 307 307 309 311 313 313 308 303 303 303 302 302 302 302 302 302 302 301 301 300 300 299 299 299 299 298 298 298 298 298 298 298 299 299 299 299 298 298 298 299 300 300 300 300 300 300 301 301 301 301 301 302 304 305 307 308 309 310 312 312 312 310 310 312 315 316 317 317 317 317 317 317 317 316 316 316 316 314 314
311 310 310 310 310 307 306 307 307 307 310 312 310 306 303 302 302 302 301 301 301 301 301 301 300 300 300 300 299 299 299 299 299 299 299 299 299 298 298 298 298 298 299 299 298 298 298 298 299 300 300 300 300 300 300 300 300 300 300 301 302 303 305 306 308 308 309 311 311 310 309 310 311 312 312 313 314 314 314 315 315 315 315 315 315 314 313
311 311 310 311 311 308 306 307 307 307 308 308 304 302 302 302 302 301 301 301 301 301 301 300 300 300 300 299 299 299 299 299 299 299 298 298 298 298 298 298 298 298 298 299 299 298 298 299 299 300 300 300 300 299 300 300 301 301 301 301 301 302 303 304 305 306 306 307 308 308 308 308 308 308 308 309 310 311 310 310 311 313 313 313 313 313 312
308 309 309 309 308 306 306 307 307 305 304 303 302 302 302 301 301 301 301 301 301 301 301 300 300 300 300 299 299 299 299 299 299 299 299 298 298 298 297 298 298 298 298 298 299 298 298 298 299 300 300 301 300 300 299 300 300 301 301 301 301 301 301 302 303 304 304 304 305 305 305 305 305 305 305 306 306 307 307 307 308 309 309 309 309 309 308
306 307 307 306 305 304 305 305 304 303 303 302 302 302 302 301 302 301 301 301 301 301 300 300 300 300 300 299 299 299 299 299 300 300 300 299 299 299 298 298 299 299 299 299 299 299 298 298 299 299 299 300 300 300 299 298 299 299 300 301 301 301 301 301 301 302 303 303 303 304 304 304 304 304 304 304 304 305 305 306 306 306 306 306 306 305 304
306 306 306 305 304 304 304 303 303 303 302 302 302 302 302 302 301 301 301 301 300 300 300 300 300 300 300 299 299 299 299 300 300 300 300 299 299 299 299 299 299 299 299 299 299 299 299 299 299 299 299 299 300 300 300 299 298 298 299 300 300 300 301 301 301 301 302 302 303 303 303 303 303 303 303 303 303 303 303 304 304 304 304 304 304 304 303
306 306 305 305 304 304 303 303 303 302 302 302 302 302 301 301 301 301 301 300 300 300 301 301 301 301 301 301 300 299 299 300 300 299 299 299 299 299 299 299 299 299 299 299 299 299 299 299 299 300 300 300 300 300 300 300 298 298 299 300 300 300 300 301 301 301 301 301 302 302 302 303 303 303 302 303 303 303 303 303 303 303 304 303 303 303 303
306 305 305 304 304 303 303 302 302 302 302 302 302 301 301 301 301 301 301 300 301 301 301 301 301 301 301 301 300 299 299 300 300 300 300 300 300 300 300 299 300 300 299 299 299 299 299 299 299 300 300 300 300 300 300 300 299 298 299 300 300 300 301 301 301 301 301 301 301 301 302 302 302 302 302 302 302 302 303 303 303 304 304 304 304 303 303
305 305 304 303 303 303 303 302 302 302 301 301 301 301 301 301 300 300 300 300 300 299 299 299 298 298 298 299 299 299 299 299 300 299 299 299 299 299 300 300 299 299 299 300 299 299 299 299 299 300 300 299 299 299 299 300 299 299 299 300 300 300 300 301 301 301 301 301 301 301 300 300 301 301 301 301 301 301 301 301 301 302 303 304 304 303 303
305 304 304 303 303 303 303 302 302 301 301 301 301 301 301 300 300 300 300 299 298 297 297 297 297 297 297 297 298 298 298 298 299 299 299 299 299 299 299 299 299 299 299 299 299 299 299 299 299 299 299 299 299 299 299 299 299 299 299 299 300 300 300 300 300 301 301 301 301 301 300 300 300 299 299 299 299 299 299 299 299 299 300 301 302 301 302
305 304 304 303 303 302 302 302 302 301 301 301 301 301 301 300 299 299 299 299 298 297 297 298 297 297 297 297 297 297 297 298 298 298 298 299 299 299 299 299 299 299 298 298 298 298 298 298 299 299 299 299 299 299 299 299 299 298 299 299 299 300 300 300 300 300 300 301 301 301 301 300 300 299 299 299 298 298 298 298 298 297 297 298 298 298 298
304 304 304 303 303 303 302 302 302 302 302 302 301 301 301 300 300 300 299 299 299 298 298 298 298 297 297 297 297 297 297 297 297 297 297 298 298 298 298 298 298 298 298 298 298 298 298 298 298 298 299 299 299 299 299 299 299 299 299 299 299 299 299 299 300 300 300 300 300 301 301 301 300 300 300 300 299 299 299 299 299 299 298 297 297 297 296
304 304 303 303 303 303 303 303 303 302 302 302 301 301 301 300 300 300 300 299 299 299 298 298 298 298 298 298 297 297 297 297 297 297 297 297 297 297 297 297 297 297 298 298 298 298 298 298 298 298 298 299 299 299 298 298 299 299 299 299 299 299 299 299 299 299 299 299 299 300 300 300 300 300 300 300 300 300 300 300 300 300 299 298 297 297 296
304 303 303 303 303 303 303 303 303 303 302 301 301 301 301 300 300 300 300 300 299 299 299 298 298 298 298 298 298 298 298 297 297 297 297 296 296 297 297 297 297 297 297 297 297 298 298 298 298 298 298 298 299 299 298 298 299 299 299 299 299 299 299 299 299 299 299 298 299 299 299 299 299 300 300 300 300 300 300 300 300 300 299 299 298 297 296
303 302 302 302 302 302 303 303 303 302 302 301 301 301 301 300 300 300 300 300 299 299 299 298 298 298 298 298 298 298 298 298 297 297 297 297 297 297 297 296 295 294 294 295 297 298 298 298 298 298 298 298 299 299 299 299 298 299 299 299 299 298 298 299 299 299 299 298 298 298 299 299 299 299 299 300 300 300 300 300 300 299 299 299 298 297 296
302 302 301 300 300 300 301 301 301 302 302 301 301 301 301 301 300 300 300 300 299 299 299 299 298 298 298 298 298 298 298 297 297 297 297 296 296 296 295 294 293 291 291 293 296 298 298 298 298 298 298 298 298 298 299 299 298 299 299 299 298 298 298 297 297 298 299 298 298 298 298 299 299 298 299 299 299 299 300 300 299 299 299 299 298 297 297
302 301 301 300 300 300 300 300 300 301 301 301 300 300 300 300 300 300 299 299 299 299 299 299 299 298 298 298 298 298 298 297 297 297 296 295 295 294 294 293 293 291 290 292 295 297 297 297 298 298 298 298 298 298 298 298 298 299 299 299 299 298 297 296 297 298 298 298 298 298 298 298 299 298 298 298 298 298 299 299 299 299 299 298 298 297 297
301 301 301 300 300 300 300 300 300 300 300 300 300 300 299 299 300 300 299 299 300 299 299 299 299 299 299 299 298 298 298 298 298 297 296 295 294 294 293 293 293 291 290 291 292 294 295 296 296 297 297 297 297 297 297 298 298 298 299 299 299 298 297 297 297 297 298 297 297 297 298 298 298 298 298 298 298 298 298 298 299 299 298 298 298 298 297
301 301 301 300 301 301 300 300 301 301 301 301 300 300 300 300 300 300 300 300 300 300 300 299 299 299 299 299 299 298 298 298 298 297 296 296 295 294 294 294 293 291 290 292 293 294 295 296 296 296 296 296 296 297 297 297 298 298 298 299 299 298 298 297 297 297 297 297 297 297 297 297 297 297 297 297 298 297 298 298 298 298 298 297 297 297 297
301 301 301 301 301 300 300 301 301 301 300 301 301 300 301 301 300 300 301 300 300 300 300 300 300 300 300 300 299 299 299 299 298 297 296 296 295 295 294 293 292 290 291 294 295 295 295 296 296 296 296 296 296 296 297 297 297 297 298 299 299 298 298 298 297 297 297 297 297 297 297 296 296 296 296 297 297 297 297 297 297 297 297 297 297 297 296
302 301 302 301 301 301 301 301 301 301 300 300 301 300 300 300 300 300 300 300 300 301 301 300 300 300 300 300 300 299 299 299 298 297 296 296 296 295 294 293 292 291 293 294 294 295 295 295 295 296 297 296 295 296 297 297 297 297 298 298 299 298 298 298 298 297 297 297 297 296 296 296 296 295 295 296 297 297 297 297 297 297 297 296 296 296 296
302 302 302 302 301 301 301 301 301 301 300 300 300 300 300 300 300 300 300 300 300 300 300 300 301 300 300 300 300 299 299 299 298 297 296 296 296 295 294 293 293 294 295 294 294 295 295 294 294 295 296 295 295 296 297 296 297 297 297 298 298 298 298 298 298 298 297 297 297 296 296 296 295 295 295 295 296 297 297 297 297 296 296 296 296 296 295
302 301 302 302 301 301 301 301 300 300 300 300 300 300 300 300 300 299 299 299 300 300 300 300 300 300 300 300 300 299 299 299 298 297 296 296 296 296 295 294 294 295 295 295 295 295 295 294 293 293 294 294 294 295 296 296 296 297 297 297 298 298 298 298 298 297 297 297 297 296 296 295 295 295 295 295 296 297 296 296 296 296 296 296 295 295 295
301 300 300 301 301 301 300 300 300 300 300 300 300 300 300 300 300 300 299 299 299 299 300 300 300 300 300 300 300 299 299 298 297 296 296 297 297 297 296 295 295 295 295 295 294 295 295 294 293 291 292 294 295 296 296 296 296 297 297 297 298 298 299 298 298 297 296 296 296 296 296 295 295 295 294 295 296 296 296 295 295 295 295 295 295 295 295
301 300 300 300 300 300 300 300 299 300 300 299 300 300 299 299 299 299 299 299 299 299 300 300 299 299 299 300 299 299 298 297 297 297 297 297 298 297 296 295 295 296 295 295 295 295 295 295 293 291 292 295 296 296 296 296 296 296 297 297 297 298 298 298 298 297 297 296 296 296 295 295 295 295 294 295 295 295 295 295 295 295 295 295 295 295 295
300 300 300 300 300 299 299 299 299 299 299 299 300 299 299 299 299 299 299 299 299 299 299 299 299 299 299 299 299 298 298 298 298 298 298 298 298 298 297 296 296 297 296 296 296 296 296 295 293 291 292 295 296 296 296 297 297 297 297 297 297 297 298 298 298 297 297 296 296 295 295 295 295 295 294 294 295 295 295 295 294 294 295 294 294 294 294
300 300 300 300 299 299 299 299 299 299 299 299 299 299 299 299 299 299 299 299 299 299 299 299 299 299 299 299 299 299 299 299 298 298 298 298 298 298 297 297 297 297 297 296 296 296 295 295 294 293 293 294 295 296 296 297 297 297 297 297 297 297 297 297 297 297 297 296 296 296 295 295 295 295 294 294 294 294 294 294 294 294 294 294 294 293 293
300 299 299 299 299 299 299 299 299 299 299 299 299 299 299 299 299 299 299 299 299 299 299 299 299 299 299 299 299 299 298 298 298 298 298 298 298 298 298 298 298 298 297 297 297 297 295 293 293 293 293 293 294 294 294 295 295 296 297 297 297 297 297 297 297 297 297 296 296 296 296 295 295 295 294 294 293 294 294 294 294 294 293 293 293 293 293
299 299 299 299 299 299 299 299 299 299 299 299 299 299 299 299 299 299 299 299 299 300 299 299 299 299 299 299 299 299 298 298 298 298 298 298 298 298 298 298 298 298 298 298 298 298 296 294 293 292 293 293 293 293 293 293 293 293 294 296 297 297 296 296 297 297 296 296 296 295 295 295 295 295 295 294 294 294 294 294 293 293 293 293 294 294 293
299 299 299 299 299 299 299 299 299 299 299 299 299 299 299 299 299 299 298 299 299 299 299 299 299 299 299 299 299 299 299 298 298 298 298 298 298 298 298 298 298 298 298 298 298 297 297 295 293 292 293 293 293 293 292 293 292 292 292 295 297 297 296 296 297 297 296 296 296 295 295 295 296 295 295 295 294 294 294 293 293 293 293 293 293 293 293
299 299 299 299 299 299 299 299 298 299 299 299 299 300 299 299 299 299 299 299 299 299 299 299 299 299 299 299 299 299 299 299 299 299 299 298 298 298 298 298 298 298 298 298 297 297 296 295 294 293 293 293 293 293 292 293 292 291 290 292 294 296 296 296 296 296 296 296 296 295 295 295 295 295 295 295 294 294 294 294 294 294 294 293 293 293 292
300 299 299 299 299 299 299 298 298 299 299 299 299 299 299 299 299 299 299 300 300 299 300 300 299 299 299 299 299 299 299 299 299 299 299 299 299 299 298 298 298 298 298 298 297 296 295 295 294 293 293 292 292 292 291 291 291 291 290 290 292 294 295 295 295 296 296 296 296 296 296 295 295 295 295 295 295 294 294 294 294 294 294 293 293 293 292
299 299 299 299 298 298 299 299 298 298 298 298 298 299 299 299 299 299 299 299 299 299 300 300 299 299 299 299 299 299 299 299 299 299 299 299 299 299 298 298 298 298 298 297 296 295 295 295 294 293 293 294 293 292 290 289 289 289 289 289 290 292 294 295 294 295 295 296 296 296 296 295 295 295 295 295 295 295 294 294 294 294 294 293 293 293 292
299 299 299 299 298 298 299 299 298 298 298 298 298 299 299 299 299 299 299 299 299 299 299 299 299 299 299 299 299 299 299 299 299 299 299 299 299 298 298 297 297 297 297 296 296 295 296 296 295 294 294 294 294 293 291 289 288 288 289 289 290 291 293 294 294 294 295 296 296 296 295 295 295 295 295 295 295 295 295 294 294 293 293 293 293 293 292
299 299 299 299 299 299 298 298 298 298 298 298 298 299 299 299 299 299 299 299 299 299 299 299 299 299 299 299 299 299 299 299 299 299 299 298 298 298 298 297 297 297 296 296 296 296 296 296 295 295 294 294 294 294 293 290 288 288 289 290 291 292 292 293 294 295 295 296 296 296 295 295 295 294 294 295 295 295 295 294 294 293 293 293 293 292 292
299 299 299 298 298 298 298 298 298 298 298 298 299 299 298 298 298 299 299 299 299 299 299 299 299 299 299 299 299 299 299 298 298 298 298 298 298 298 298 297 297 297 296 296 296 296 296 295 295 295 295 294 294 294 294 292 290 288 288 290 292 292 292 293 293 294 295 295 296 296 295 295 295 294 294 294 295 295 294 294 294 294 293 293 293 293 293
299 299 298 298 298 298 298 298 298 298 298 298 298 298 297 297 298 298 298 298 298 298 298 299 299 298 298 298 298 298 298 298 298 298 297 297 297 298 297 297 297 297 297 296 296 296 296 296 295 295 295 295 294 294 294 293 291 288 288 290 292 292 292 293 293 294 294 295 295 295 295 295 294 294 294 294 294 294 294 294 294 293 293 293 294 293 293
299 298 298 298 298 298 298 298 298 298 298 298 297 297 297 297 298 298 298 298 298 298 298 298 298 298 298 298 297 297 297 297 297 297 297 297 297 297 297 297 297 297 296 296 296 296 295 295 295 295 295 295 294 294 293 293 291 289 289 290 292 292 293 293 294 294 295 295 295 295 295 295 295 294 294 294 294 294 293 293 293 293 293 293 293 293 293
298 298 298 298 298 298 297 297 298 298 298 298 297 297 297 296 296 297 297 297 298 298 298 298 298 298 298 297 296 296 296 296 296 296 296 297 297 297 297 297 297 296 296 296 296 296 295 295 295 295 295 295 294 293 293 293 292 290 290 291 291 292 293 293 293 294 294 294 294 294 295 295 295 294 294 294 294 294 293 293 293 293 293 293 293 293 293
298 298 298 298 297 297 297 298 298 298 298 297 297 297 296 296 296 297 298 297 297 297 297 297 297 297 297 297 296 296 296 296 295 295 296 296 296 297 297 297 296 296 296 296 296 296 296 295 295 295 295 294 293 293 293 293 292 292 291 291 290 290 291 292 292 293 294 294 295 295 295 295 295 295 294 294 294 294 293 293 294 294 293 293 293 293 293
Wind_Speed
9 8 9 11 12 10 9 10 10 10 11 11 9 6 2 3 4 4 7 10 8 5 7 8 7 9 9 9 10 11 12 14 15 16 18 19 20 19 19 18 17 16 17 16 16 16 16 16 18 19 20 20 20 20 19 18 15 12 11 9 7 10 16 20 22 23 26 29 29 29 31 31 30 30 31 30 28 25 23 23 24 26 26 23 22 22 21
9 9 9 11 12 11 11 12 11 10 11 12 10 9 8 9 9 8 12 13 9 5 6 7 8 10 10 10 11 13 14 15 15 16 18 19 20 20 19 18 17 16 16 16 16 16 16 17 18 19 19 21 21 20 20 19 17 14 14 15 14 12 14 19 23 25 27 29 30 31 32 32 31 32 31 30 28 27 27 26 26 28 27 24 22 21 22
5 6 10 10 12 14 13 12 10 8 9 10 10 8 8 9 10 10 12 11 7 4 6 8 9 10 11 12 13 14 16 15 15 16 16 17 18 20 20 19 18 17 17 17 16 17 17 16 16 17 18 19 20 19 19 18 17 15 15 16 18 17 16 16 19 22 26 28 31 33 33 31 32 32 31 29 29 31 32 30 28 29 29 26 23 21 22
2 3 8 9 11 13 13 12 11 10 8 7 7 6 6 5 6 8 8 6 3 3 5 8 10 12 14 13 13 14 15 15 15 16 16 16 16 18 20 20 19 19 18 18 18 17 17 15 14 15 16 17 17 17 18 17 15 14 13 14 15 16 17 16 16 19 22 24 29 34 34 31 32 34 33 31 31 33 35 33 31 30 29 28 25 21 22
4 3 3 3 5 7 6 6 5 5 6 7 7 8 9 7 4 3 4 3 3 4 5 7 8 11 12 13 13 14 14 14 15 15 15 16 16 16 18 20 20 20 19 18 17 17 16 16 16 16 15 15 15 16 16 15 14 12 10 9 10 11 13 15 16 17 19 22 27 34 34 31 32 36 35 32 31 34 34 33 32 30 28 28 25 22 22
5 6 3 2 4 3 2 4 2 3 6 9 10 9 9 9 6 5 5 5 5 5 5 6 8 10 13 16 16 16 14 14 14 15 15 15 15 15 16 17 19 19 19 18 17 16 16 16 15 15 14 14 15 14 13 14 15 14 12 9 7 5 6 9 13 14 19 20 26 34 35 33 35 37 36 34 33 34 34 31 31 30 27 27 25 22 22
4 4 2 3 2 1 1 2 5 8 9 11 14 11 10 10 8 7 8 7 7 8 9 11 13 15 18 20 20 20 18 17 16 16 16 15 14 13 14 15 16 17 18 18 17 17 16 15 14 14 14 14 14 13 12 14 16 16 14 11 10 8 3 1 6 12 19 22 25 32 34 35 38 38 36 36 35 34 34 32 31 30 27 25 24 22 22
3 2 2 2 3 3 3 3 5 7 6 6 9 9 9 8 6 5 7 8 9 11 12 14 16 18 20 21 21 20 19 19 19 19 18 17 16 15 13 14 15 16 17 17 17 17 16 15 15 15 14 14 13 12 12 13 15 16 16 15 14 15 12 7 7 13 18 20 23 29 32 34 36 36 35 36 36 34 34 33 31 29 27 25 24 23 21
3 3 3 3 4 4 3 1 1 2 1 1 2 4 4 6 7 4 6 8 9 12 14 17 18 17 17 16 15 15 16 16 17 17 17 18 19 19 17 17 17 17 17 17 16 16 16 16 16 15 14 14 13 13 13 13 13 14 16 18 19 20 19 14 8 11 16 19 21 26 30 32 34 35 35 34 35 35 34 32 30 29 27 25 24 22 20
2 4 4 3 3 3 2 1 1 4 6 2 2 4 3 3 7 5 6 7 8 12 13 14 12 9 9 7 7 11 12 13 15 16 16 17 18 19 19 19 19 19 18 18 17 16 16 17 17 16 15 15 14 14 15 15 15 15 16 19 20 20 21 19 14 11 13 17 20 25 30 32 32 34 34 33 34 34 34 32 30 29 27 26 24 21 19
2 4 4 2 2 2 2 1 2 8 9 2 2 2 2 1 5 5 6 6 6 8 8 10 9 2 3 3 5 9 11 13 15 16 17 18 18 18 18 18 19 19 19 19 18 17 17 17 16 16 16 15 16 17 17 17 18 19 19 20 20 19 19 19 16 15 15 16 20 24 30 33 32 31 31 30 29 30 31 32 31 29 28 26 24 22 21
3 3 3 2 1 1 1 1 4 9 8 1 3 1 2 2 3 5 6 5 4 5 5 5 3 2 4 6 8 11 12 13 15 15 16 18 18 18 19 19 19 19 19 20 20 21 20 18 16 15 15 16 18 19 20 20 21 23 22 20 19 19 18 17 17 16 15 15 19 23 27 31 32 30 29 27 27 27 28 29 29 28 27 26 25 24 23
4 4 3 2 1 0 1 2 6 7 4 2 2 1 2 5 6 7 7 7 6 7 9 11 11 10 13 15 15 14 13 13 14 14 15 16 16 16 17 17 18 19 20 21 22 22 22 19 17 15 15 17 20 20 21 22 22 22 21 19 18 18 16 15 16 16 13 12 15 21 24 25 27 27 26 25 25 24 24 24 25 25 24 24 25 24 22
2 3 3 2 1 1 2 3 4 4 1 2 2 4 7 9 10 10 10 11 13 16 19 20 19 18 18 17 15 14 13 12 12 12 12 13 14 14 14 15 16 18 19 21 22 22 23 23 22 19 17 18 19 19 20 22 20 18 16 17 16 16 16 15 14 14 12 9 10 15 19 20 22 23 22 21 20 20 20 20 21 21 20 20 21 21 20
2 3 3 2 2 3 5 3 3 4 2 5 9 12 12 12 13 13 14 15 17 20 22 22 21 19 17 15 14 13 12 11 10 10 10 11 12 13 13 15 16 17 18 19 20 21 21 23 24 23 23 23 22 20 19 18 16 15 14 14 13 14 14 15 15 15 15 13 11 13 15 16 19 21 21 20 19 18 18 18 19 20 19 17 17 17 16
1 2 2 1 0 4 6 6 4 6 10 15 18 18 15 14 15 15 16 16 18 20 21 21 20 18 16 14 13 12 11 10 10 10 10 11 11 12 13 14 15 17 17 18 18 18 19 21 22 23 24 24 25 24 21 17 13 13 13 12 13 14 14 14 14 14 14 16 16 16 16 16 18 21 22 21 20 18 17 16 17 19 18 16 15 15 15
3 4 4 5 8 13 18 20 18 18 20 20 19 19 18 16 15 16 17 18 18 18 19 19 18 16 14 12 11 10 10 9 9 9 9 10 11 11 12 13 14 16 16 15 16 17 18 19 21 22 22 22 23 24 23 20 17 15 14 13 14 15 15 14 13 12 12 13 14 16 17 17 17 18 19 19 19 18 16 15 15 17 18 17 18 18 17
8 10 11 12 15 18 22 23 23 23 22 20 19 20 19 17 16 16 17 18 17 17 17 17 16 14 12 11 9 8 8 8 8 8 8 9 10 11 11 11 12 13 13 13 13 14 15 15 17 18 19 20 20 20 20 20 20 18 17 17 18 19 19 17 15 12 12 12 12 14 16 18 18 17 16 16 17 15 14 13 13 14 15 17 17 17 15
5 6 7 10 15 18 21 22 23 22 21 19 18 19 19 18 17 16 16 17 17 16 15 15 14 12 10 9 9 9 8 8 8 9 9 9 11 12 11 11 10 10 10 11 12 12 13 14 15 16 17 17 18 17 17 18 18 17 17 18 19 20 20 20 19 17 16 15 13 12 14 16 18 18 16 16 15 14 13 13 12 12 13 13 13 13 12
4 6 9 13 17 19 21 22 23 22 21 19 18 18 18 16 15 14 14 15 14 14 12 11 11 9 7 7 7 7 7 6 7 8 10 11 11 12 12 12 12 11 10 10 10 10 11 12 13 14 15 16 16 15 15 17 18 17 15 15 15 15 15 16 17 18 19 19 18 17 14 13 14 15 15 14 13 12 12 12 11 10 10 10 9 9 8
7 7 11 14 14 13 15 19 22 23 23 22 20 19 18 17 16 15 14 14 14 15 15 13 12 11 9 8 8 8 8 8 8 10 12 12 13 13 12 12 13 14 13 11 10 10 11 10 10 11 13 14 15 15 15 15 16 16 15 13 12 12 12 12 12 13 14 16 17 18 18 15 13 13 12 12 11 10 8 8 8 7 6 6 6 5 5
5 6 11 13 10 8 11 18 22 22 22 22 21 20 18 18 17 16 16 15 16 16 16 15 15 15 14 13 12 12 12 12 11 11 11 11 11 11 11 11 12 13 13 13 12 12 12 11 9 8 10 11 12 12 13 14 13 13 13 11 10 10 11 11 10 10 11 11 13 14 16 16 16 15 14 12 11 9 8 6 5 4 3 3 4 5 4
9 14 18 17 14 14 18 22 23 21 21 20 20 19 18 17 17 18 18 17 16 15 14 14 15 15 15 14 13 13 12 11 11 10 9 8 8 8 8 8 9 9 11 13 13 13 13 12 9 7 8 10 10 9 10 10 10 10 11 10 8 8 9 9 9 10 10 10 9 9 10 12 14 14 15 14 13 12 12 10 8 6 5 4 5 6 5
17 21 22 20 20 21 22 23 23 21 19 19 19 18 17 16 16 17 17 18 18 16 14 13 13 13 13 13 12 11 11 10 9 9 8 7 6 6 6 7 7 8 9 11 12 12 12 12 10 8 8 10 12 10 8 6 6 8 9 9 7 6 7 7 8 9 10 9 8 7 7 7 8 9 10 11 13 13 13 13 12 11 9 7 7 7 6
21 22 22 21 22 23 23 23 22 20 18 17 17 16 15 15 15 14 14 15 15 14 13 12 10 9 9 10 9 9 9 8 7 7 7 7 6 5 6 7 7 8 8 9 10 10 10 11 11 10 10 10 11 11 9 5 5 8 8 8 7 6 6 5 5 7 9 10 8 8 6 4 3 4 5 6 7 9 10 11 11 11 10 9 7 7 7
24 24 22 21 21 23 24 22 20 19 17 15 15 14 14 13 13 12 12 11 11 11 10 10 9 7 6 6 7 7 7 6 5 4 4 5 4 4 5 6 7 8 8 8 8 7 7 8 9 9 10 9 10 11 10 7 6 7 8 7 7 7 7 5 4 5 8 8 7 6 6 6 4 2 2 2 3 5 7 8 8 8 9 9 8 7 8
25 24 23 22 22 23 24 21 20 19 17 15 15 15 14 13 13 12 10 9 9 8 7 7 7 6 5 4 4 4 4 3 2 3 3 3 3 4 6 8 11 11 9 9 8 7 6 6 6 6 7 7 7 9 9 8 7 6 6 6 7 8 7 6 5 4 6 7 6 3 3 5 6 5 4 4 4 4 4 5 6 7 8 10 10 9 8
22 21 21 20 19 21 22 21 20 20 19 17 16 15 14 14 13 12 11 9 8 7 6 5 4 5 5 4 2 2 2 2 2 3 4 4 5 7 9 10 11 11 8 7 6 5 4 5 6 6 5 3 4 5 6 7 7 6 4 4 6 7 7 6 4 3 4 6 6 4 3 3 5 6 6 6 6 5 5 4 5 7 8 9 10 9 8
20 20 19 18 19 20 21 20 20 21 20 18 16 14 14 15 14 12 10 9 8 7 6 5 5 6 6 4 3 3 3 3 4 7 8 7 8 9 9 9 9 10 8 6 6 6 6 7 8 7 5 4 5 5 5 5 7 7 6 4 5 7 7 5 2 0 1 4 5 5 4 4 4 5 6 6 6 5 5 5 5 6 8 8 8 8 7
21 20 19 18 18 19 18 18 18 18 17 15 15 15 14 13 13 12 9 8 7 7 6 6 6 5 4 3 3 3 3 2 5 8 9 8 9 9 10 9 9 8 7 5 5 5 5 5 4 5 7 8 9 8 6 4 5 7 7 4 2 5 6 5 2 1 2 3 3 3 4 5 5 6 6 5 5 5 5 6 6 5 6 6 5 5 5
21 20 19 19 18 17 17 16 16 14 12 11 12 13 11 10 10 11 9 8 8 7 6 6 6 5 4 3 2 2 1 2 6 8 8 9 10 11 11 11 10 8 7 6 6 6 6 7 7 7 9 11 9 7 5 3 4 6 7 5 1 2 4 5 4 2 2 2 2 3 4 6 8 9 9 7 4 2 4 5 6 4 3 3 2 3 4
22 21 19 19 18 17 16 15 14 13 10 8 8 10 9 7 7 7 7 6 6 5 4 5 5 4 4 3 2 3 3 3 6 7 8 9 11 11 12 11 10 8 7 6 7 8 7 8 8 8 10 13 10 5 4 4 5 5 6 5 2 1 2 4 4 4 5 4 3 3 5 7 8 9 9 9 7 4 1 2 2 2 1 1 3 3 4
23 22 21 21 20 18 16 16 15 13 11 9 9 9 7 5 5 6 6 6 6 4 3 3 3 3 4 4 4 5 4 4 6 7 8 9 10 10 11 11 9 7 6 6 7 8 8 9 9 7 9 12 10 4 4 5 4 4 5 5 3 2 2 4 5 4 3 2 3 4 6 7 9 9 9 8 8 6 4 4 3 3 2 1 1 2 2
19 20 20 21 20 18 18 17 15 12 12 11 10 9 7 6 5 4 4 6 7 6 4 3 2 2 3 5 6 5 4 5 7 7 7 9 9 9 10 9 6 5 5 6 7 8 10 12 11 7 8 11 9 5 4 5 4 4 5 6 5 5 5 5 6 5 4 5 5 5 7 8 10 11 8 6 7 6 5 4 4 4 3 1 1 3 2
16 16 16 16 16 17 18 17 15 13 13 12 11 10 8 7 6 6 4 3 4 4 2 2 1 1 2 4 5 5 5 7 6 5 6 8 8 8 8 7 5 3 3 4 6 7 10 14 14 9 8 9 7 4 3 4 4 5 6 7 8 9 8 7 6 5 4 4 5 5 7 9 11 11 7 4 6 5 4 3 3 4 3 2 2 3 2
18 18 17 17 18 18 17 15 14 12 11 11 11 11 9 7 7 6 6 5 3 2 2 1 0 1 1 2 3 5 6 5 4 3 5 6 7 8 7 6 5 4 4 5 7 8 10 14 16 11 8 8 5 2 3 3 3 5 7 9 10 9 9 7 6 5 3 4 5 6 8 10 12 10 5 2 4 4 4 3 3 3 3 3 4 3 1
18 18 19 19 17 16 14 13 11 10 9 9 11 11 9 7 6 6 5 4 4 3 2 2 1 2 1 0 1 3 2 2 2 3 5 5 6 8 7 5 5 6 6 7 8 8 10 14 15 12 7 5 4 2 3 3 3 5 7 9 9 8 6 8 6 5 3 4 5 6 7 9 11 9 5 1 3 3 2 2 3 4 4 4 3 2 2
15 15 15 15 13 13 12 11 9 9 9 9 8 7 5 4 4 3 4 3 2 0 1 2 1 1 1 1 2 4 3 3 3 4 4 4 6 7 6 4 4 6 7 8 8 7 8 12 13 11 6 2 1 2 3 3 5 7 9 10 11 9 6 7 6 4 3 5 6 7 7 8 9 9 6 2 2 3 2 1 2 3 3 2 1 3 5
12 11 11 10 9 9 10 9 8 7 7 6 6 6 4 3 2 4 4 4 2 0 0 1 1 1 1 1 1 2 2 1 2 4 4 3 4 5 4 4 6 7 8 9 8 6 7 9 10 10 8 6 4 4 5 5 6 8 10 12 14 13 10 8 7 4 4 6 7 8 8 7 7 7 7 3 1 2 2 2 2 3 4 5 6 5 4
9 9 10 9 8 8 8 6 5 5 5 4 5 5 4 2 1 3 4 5 4 2 0 0 1 2 2 1 1 2 2 2 3 4 3 3 4 5 6 7 8 8 9 11 10 8 8 8 7 7 9 9 7 6 6 6 7 9 11 14 13 11 10 8 6 7 6 5 5 6 7 7 5 6 6 5 2 1 3 2 2 2 4 5 4 3 2
9 11 11 9 7 7 7 6 6 6 5 4 4 4 3 1 1 1 2 4 4 2 1 1 2 3 4 4 5 5 5 4 4 4 4 4 5 7 8 9 10 9 10 13 13 12 10 9 7 7 8 8 7 5 5 7 8 9 10 11 8 6 9 11 4 5 3 2 2 2 5 6 5 4 5 4 2 2 3 2 2 2 3 3 2 2 4
13 12 11 9 7 7 8 8 7 6 5 5 5 5 3 1 1 2 2 3 3 2 2 2 2 2 4 5 5 4 4 4 5 5 6 6 6 8 9 10 10 9 10 12 12 12 11 9 8 7 8 7 6 5 5 6 9 10 9 9 6 3 7 8 2 3 1 4 3 2 4 7 7 6 5 4 2 1 2 2 2 2 0 1 1 3 5
13 11 10 8 7 7 7 5 4 4 4 4 5 4 2 2 1 1 1 1 1 2 3 4 4 3 3 4 4 4 4 5 5 6 7 7 8 9 10 11 10 10 9 10 10 10 8 7 8 10 9 7 6 7 8 9 10 10 9 8 7 4 3 3 2 4 4 5 4 3 3 5 8 8 7 4 2 1 1 2 3 2 1 1 2 3 5
13 11 9 6 5 5 5 4 3 3 2 1 3 3 3 2 1 1 2 2 2 2 3 3 4 4 4 5 6 6 7 7 6 7 8 9 9 10 11 11 10 10 8 7 7 7 5 6 8 10 8 7 7 9 11 12 12 11 9 8 8 8 6 4 5 7 8 7 5 4 4 4 6 8 9 7 4 1 1 1 3 4 2 1 1 2 4
11 10 8 6 5 6 5 4 3 3 1 1 3 4 4 3 2 2 2 3 3 3 3 3 4 5 5 6 6 6 7 7 6 7 9 10 10 10 9 8 8 8 7 6 5 4 3 6 7 6 7 9 10 11 12 12 12 11 9 8 9 10 10 8 8 9 9 9 7 6 5 4 4 6 8 8 6 3 0 0 2 3 3 2 2 1 1
9 9 8 7 5 5 4 4 4 3 2 2 3 5 4 4 2 1 1 1 1 1 1 2 3 4 5 5 6 6 7 7 7 8 9 10 10 9 7 5 5 5 4 5 5 4 3 5 6 6 8 10 11 12 13 13 11 10 8 7 7 8 10 10 9 8 9 11 10 7 5 4 3 3 5 7 8 5 3 2 2 2 1 0 1 1 1
9 9 9 7 4 4 4 6 6 5 3 3 4 6 5 4 2 2 2 2 1 0 1 2 3 5 5 6 6 6 7 7 7 8 9 9 8 8 7 4 3 2 3 5 6 6 6 6 7 8 9 10 10 12 13 13 11 10 8 6 5 6 8 9 8 6 6 9 11 9 8 7 5 3 3 6 9 8 6 4 3 2 1 0 2 2 1
9 9 9 7 5 5 7 8 5 3 3 4 5 6 5 4 4 4 3 1 1 1 1 2 3 3 4 4 4 5 6 6 6 8 8 8 9 9 9 6 3 2 4 6 7 8 8 8 8 9 9 8 9 11 12 13 12 9 7 7 7 7 8 8 8 6 6 10 12 12 10 9 6 3 2 5 7 7 6 6 5 4 3 3 2 3 3
10 9 8 7 5 6 8 9 6 3 4 5 4 3 4 5 5 3 1 1 1 2 1 1 1 2 3 4 5 6 7 7 8 8 8 7 8 9 8 6 4 3 3 5 6 6 7 9 10 10 9 8 9 11 12 12 11 8 7 8 8 8 8 8 8 6 6 10 11 10 10 9 7 3 1 3 5 4 5 6 5 3 4 4 4 4 4
10 9 9 8 6 6 7 7 6 5 5 5 3 3 3 3 2 1 0 1 2 3 4 4 4 4 5 6 7 7 7 7 7 7 7 6 8 9 9 7 6 4 4 4 4 5 5 7 8 9 8 8 9 11 11 11 9 6 7 7 7 6 7 7 6 5 6 8 8 8 9 9 8 5 2 4 6 5 5 5 4 3 5 6 5 5 5
10 9 7 7 8 7 7 6 5 5 5 5 4 3 1 1 2 2 2 1 2 2 4 5 7 7 8 8 9 9 7 6 6 6 6 7 7 8 9 8 7 7 6 6 6 6 6 6 6 6 7 8 9 9 9 9 7 5 5 6 7 7 7 7 6 6 7 8 7 7 7 9 9 7 5 5 7 7 7 5 2 3 5 7 7 6 7
10 8 7 8 8 8 5 5 5 7 7 6 5 3 1 0 1 2 1 1 3 3 4 6 8 9 9 10 10 9 8 7 7 6 7 7 7 7 8 8 9 9 10 10 11 11 10 9 9 9 9 8 7 7 6 6 6 5 6 6 7 9 10 10 9 8 8 7 6 5 6 7 8 7 6 5 6 7 6 4 2 2 4 5 6 7 8
Wind_Direction
76 80 79 82 85 78 66 63 53 41 39 43 53 52 36 94 112 140 126 101 92 86 69 59 53 57 61 53 44 44 45 42 41 41 39 35 31 29 30 33 34 32 30 27 25 23 22 21 18 13 8 4 3 4 3 359 352 348 347 339 301 257 249 247 249 247 239 235 233 223 211 208 208 202 195 194 194 191 184 174 167 165 168 173 176 176 179
81 78 81 86 89 81 61 52 51 52 52 49 50 50 54 68 79 98 103 95 85 76 71 66 62 64 68 64 55 50 47 43 39 41 42 39 35 31 30 32 33 34 33 31 31 30 27 24 18 11 6 4 4 6 5 0 353 346 343 339 326 300 266 246 243 246 243 237 234 227 214 206 206 201 193 191 190 183 178 174 169 168 171 176 178 177 178
79 81 85 87 88 84 67 45 35 43 51 43 36 34 42 65 80 87 92 93 86 67 70 74 70 67 69 66 59 52 47 42 39 39 39 39 37 33 32 33 34 34 33 29 29 30 30 27 19 12 8 6 6 8 8 3 355 346 335 326 320 311 294 265 244 244 247 238 230 228 221 209 202 196 186 186 187 181 177 174 171 173 176 177 177 179 182
110 100 99 103 96 85 68 43 30 37 50 50 41 31 25 49 97 102 89 85 93 95 87 78 70 68 67 63 60 58 52 46 45 42 38 37 38 36 34 37 38 36 33 29 25 25 27 27 25 21 15 9 7 9 10 5 356 346 332 316 306 303 298 283 259 251 254 244 228 224 220 209 199 191 183 183 185 179 175 174 172 174 177 175 175 180 185
132 154 142 111 84 76 54 19 25 61 85 85 65 41 32 35 56 91 81 85 107 112 100 84 71 68 68 64 62 62 60 57 53 48 44 43 46 46 42 41 43 42 39 35 29 26 26 27 30 30 25 19 17 15 14 11 3 354 341 321 301 288 284 282 268 248 241 239 228 218 211 203 194 186 181 182 184 177 173 174 173 174 177 175 173 178 185
136 178 200 19 41 74 33 331 350 99 107 94 78 51 40 51 63 77 84 93 98 97 95 88 78 73 72 70 69 69 69 66 58 52 51 51 53 55 53 49 49 48 48 46 41 37 35 33 34 35 34 37 38 32 26 23 18 11 1 349 334 304 271 271 265 229 205 211 218 212 205 198 190 182 179 182 184 177 174 173 172 175 178 175 172 176 182
129 161 127 67 65 118 105 30 70 96 102 95 86 68 50 58 79 95 97 102 109 110 105 95 88 85 80 75 72 70 70 69 66 60 57 57 56 55 55 55 54 54 54 53 49 46 43 40 38 36 33 36 40 37 34 32 31 29 22 14 9 7 17 198 219 194 178 182 194 198 196 191 184 179 179 182 181 175 172 173 174 175 178 176 172 173 178
114 95 48 102 130 128 123 103 92 103 105 89 79 64 44 39 51 95 115 122 126 123 115 108 103 96 87 76 69 69 69 66 66 63 59 60 60 58 55 53 54 55 55 56 55 53 50 47 44 41 35 33 31 31 34 36 39 42 40 37 33 25 27 58 135 160 166 171 174 178 186 186 179 175 176 176 175 172 172 174 175 175 175 174 172 173 178
106 101 68 96 120 135 149 146 79 88 43 298 100 85 58 26 15 51 123 132 140 141 131 124 116 98 83 71 61 64 69 67 67 66 65 67 68 67 64 61 58 57 54 54 55 54 54 53 50 48 44 40 34 30 32 34 37 42 43 44 45 40 34 38 75 128 151 163 159 160 173 180 177 174 174 171 169 172 176 175 173 173 173 171 172 175 180
86 112 109 116 146 175 168 157 333 350 345 322 138 105 96 29 10 42 114 123 142 156 155 153 143 95 69 65 54 60 68 71 74 74 71 72 72 70 68 64 62 60 55 53 52 51 54 55 53 53 51 48 44 38 36 37 37 40 45 46 47 47 44 40 43 68 110 137 139 144 159 167 166 167 170 168 166 169 173 171 169 172 174 171 170 174 176
112 118 120 144 179 169 130 155 305 340 349 345 156 105 113 49 12 54 107 107 126 153 171 187 192 155 77 96 78 76 79 79 81 79 75 75 73 69 67 63 61 60 57 55 53 49 50 53 53 55 55 53 52 50 48 47 44 44 47 48 50 52 52 51 48 48 65 89 102 120 143 155 158 160 164 164 161 162 167 168 168 170 174 173 171 171 173
112 104 107 116 125 144 134 223 309 336 353 50 166 158 148 128 55 83 106 96 111 152 157 152 155 127 123 125 106 100 98 91 88 85 80 78 76 72 71 68 65 63 60 57 54 50 49 48 48 52 56 57 59 59 56 54 51 50 49 49 51 54 55 55 53 48 47 54 68 88 113 134 145 151 154 156 157 159 162 166 166 166 169 171 169 166 168
82 87 107 99 46 217 229 296 316 336 10 122 179 221 136 113 92 98 104 94 99 124 124 110 97 98 116 122 121 119 115 102 94 89 84 82 79 75 74 72 70 67 63 59 57 55 53 51 47 47 51 56 60 60 59 57 56 57 56 54 53 55 56 56 55 53 46 36 43 62 81 103 121 131 139 145 149 152 153 157 162 163 164 168 168 164 164
91 94 95 83 90 42 329 314 322 354 46 177 150 105 110 106 100 101 104 101 101 104 106 106 107 111 118 123 127 126 119 107 98 92 90 88 82 76 74 74 72 69 65 62 59 57 56 55 53 50 50 54 58 59 58 57 57 59 62 61 60 58 58 60 61 63 62 48 43 56 66 79 95 107 117 125 132 138 140 145 154 156 155 157 160 157 155
97 83 66 99 154 321 333 310 306 352 46 139 121 108 105 105 107 107 103 102 105 106 106 108 112 115 117 119 121 119 112 105 98 91 89 86 81 75 70 69 67 65 63 61 57 55 55 55 54 52 51 53 55 57 58 58 56 56 57 61 65 65 64 64 66 72 78 81 80 78 76 79 86 94 101 107 114 122 124 127 135 140 139 141 144 143 140
101 99 81 117 48 5 44 100 108 79 106 125 122 114 109 108 111 111 106 106 110 111 112 114 115 116 116 116 118 115 108 102 95 89 86 83 81 77 73 71 70 66 63 60 56 55 54 53 52 49 48 48 49 51 53 54 53 51 50 51 57 63 67 69 69 73 81 87 92 94 93 94 95 97 98 98 101 106 111 113 116 118 120 123 124 121 114
77 86 97 97 78 70 82 99 106 107 112 117 116 113 112 112 112 111 110 113 115 115 115 115 115 114 114 114 115 113 107 99 88 82 82 80 78 76 75 75 73 69 64 62 61 58 55 53 52 49 45 43 43 44 46 47 47 47 46 47 50 54 59 65 70 76 82 88 93 96 95 95 98 103 105 102 97 97 100 102 99 99 100 102 103 104 103
86 75 84 97 92 87 92 101 107 111 113 114 115 114 114 114 116 117 117 119 121 121 120 119 117 117 117 114 111 109 104 94 82 78 79 77 73 70 71 71 69 65 63 62 61 58 51 46 46 47 46 43 41 40 41 43 46 48 49 52 54 53 54 57 62 68 75 80 89 98 99 93 88 88 92 94 91 88 88 89 89 89 91 92 93 98 101
108 82 96 108 105 105 106 107 109 111 114 118 120 118 117 119 120 120 120 122 124 123 121 119 120 122 122 116 112 114 109 97 86 79 74 69 64 61 61 61 57 54 55 55 54 51 45 39 37 41 46 46 44 44 42 40 44 51 54 54 54 55 54 54 54 56 59 62 69 84 100 105 99 90 87 86 84 79 76 77 81 85 88 90 92 95 95
92 109 125 119 113 116 117 115 116 118 119 122 121 117 117 120 123 125 127 126 125 122 118 116 117 120 122 121 118 117 109 94 85 80 74 68 63 61 62 60 53 47 44 44 45 44 43 41 38 42 49 46 42 43 43 39 42 52 59 59 57 57 57 54 54 54 53 52 54 59 71 94 108 108 105 103 98 88 78 74 78 84 91 96 98 96 91
95 109 126 120 108 107 114 119 123 126 125 124 121 117 116 117 119 125 126 118 112 112 109 104 102 103 105 106 108 108 102 96 95 92 85 77 70 68 65 59 51 44 40 39 38 36 36 34 36 47 55 48 39 37 36 34 38 45 52 60 65 62 58 54 53 55 56 54 53 55 57 63 78 93 101 105 104 96 83 75 75 80 91 107 115 110 101
118 140 151 143 125 120 135 135 134 133 130 127 125 125 124 120 117 117 117 113 110 108 104 96 92 94 97 99 100 101 100 99 98 95 90 83 75 72 68 59 48 42 39 37 36 34 30 24 21 33 45 44 38 34 32 32 36 37 38 45 56 59 58 53 44 45 55 58 59 61 63 63 67 76 84 89 91 90 86 78 70 64 72 114 132 123 124
140 154 160 151 134 137 148 144 138 136 133 129 129 130 127 122 118 115 114 116 117 113 108 100 94 93 96 99 101 100 98 98 97 92 87 81 71 64 61 54 43 36 32 30 29 28 26 22 15 10 17 22 19 18 26 34 35 32 30 33 43 54 58 55 43 39 50 63 67 68 70 73 74 78 85 90 92 92 91 90 88 86 86 99 113 112 119
138 152 153 140 130 139 148 145 140 137 134 130 131 132 129 126 125 121 117 117 119 117 115 110 105 100 96 95 98 99 97 98 99 93 83 75 69 64 58 49 37 27 21 17 15 14 15 19 20 15 13 15 10 6 11 21 15 13 22 32 43 52 56 56 50 44 46 56 63 63 64 71 74 74 79 89 95 96 95 91 87 86 86 90 103 114 119
139 148 144 134 133 142 146 144 141 141 137 130 130 133 131 128 127 129 128 126 125 123 119 116 118 116 104 94 91 91 89 88 92 90 79 69 67 63 53 41 26 13 4 1 3 6 7 12 17 16 10 10 9 7 7 4 350 351 5 23 36 42 45 49 50 44 41 44 52 55 52 52 60 62 65 78 91 98 103 98 88 81 80 82 93 112 121
138 143 143 140 143 149 152 153 154 153 146 133 127 130 131 126 123 127 131 130 128 126 118 108 105 107 103 95 87 82 77 72 75 86 83 69 61 48 30 11 353 339 331 330 339 352 358 358 2 6 5 3 6 8 9 6 355 353 4 18 25 28 31 32 32 39 40 38 41 50 53 52 59 74 86 88 85 91 104 105 92 83 80 80 85 102 117
130 134 135 136 143 153 157 157 155 156 154 145 139 139 141 138 134 134 137 138 139 137 126 105 95 93 89 82 82 83 82 76 80 97 93 74 46 14 352 340 333 322 308 302 314 331 343 344 342 347 350 347 351 1 9 9 360 356 5 16 15 14 17 18 17 20 21 17 18 35 66 68 67 72 91 110 116 113 118 114 99 89 86 82 81 90 104
129 133 131 127 132 144 147 143 143 153 162 161 155 151 153 157 155 153 156 159 156 155 151 137 119 109 96 92 117 145 136 129 99 64 42 16 355 344 337 335 338 335 322 300 297 313 326 330 332 336 336 328 331 347 357 359 355 354 360 15 16 8 1 0 4 2 4 17 35 58 79 68 57 61 79 104 126 144 148 135 112 101 98 91 86 87 98
136 137 133 125 125 133 140 140 143 153 160 159 155 152 154 158 157 156 159 158 152 156 163 156 141 130 119 120 154 172 153 112 56 26 10 359 354 350 345 346 352 353 343 317 292 292 300 304 307 311 311 302 304 313 320 331 340 340 337 356 30 27 13 8 15 72 70 66 67 65 58 48 36 41 64 91 121 143 150 146 129 113 105 99 92 89 96
139 138 136 134 133 137 142 144 146 150 151 151 152 156 157 157 156 158 159 155 152 162 173 173 164 160 160 166 166 158 145 72 24 12 6 6 5 1 359 1 3 2 356 340 321 323 340 349 340 330 329 322 308 299 298 311 326 330 327 329 30 41 25 17 22 145 131 105 74 33 26 22 6 1 19 52 92 118 128 133 134 125 110 100 90 77 78
142 142 143 145 144 144 143 142 140 140 137 134 141 150 153 153 157 160 160 157 158 164 171 176 180 188 202 208 189 177 201 350 1 0 3 11 9 4 5 7 7 8 15 24 32 37 42 44 35 16 4 354 330 297 284 293 305 319 323 311 277 59 30 15 11 30 60 57 39 27 20 10 358 349 346 349 0 71 119 125 130 130 111 79 46 30 32
148 149 153 156 154 150 149 151 151 152 154 154 150 149 146 142 147 156 162 165 166 169 174 180 189 210 228 239 252 253 262 318 347 350 357 6 7 4 5 6 6 11 26 49 55 49 37 24 14 2 1 3 354 315 278 284 288 301 317 310 276 150 52 7 6 37 54 49 42 26 4 357 355 349 335 325 320 313 237 153 153 162 144 18 1 11 27
155 155 162 169 168 162 158 158 158 158 162 166 160 153 152 159 168 176 183 183 176 168 172 188 208 226 235 255 271 262 262 308 335 343 355 3 3 3 7 9 12 25 43 55 48 36 20 9 3 348 343 353 355 332 281 288 291 296 310 309 285 231 257 320 338 4 30 15 357 358 354 351 354 351 330 305 298 292 269 250 250 251 260 319 11 36 49
165 167 174 182 182 173 162 155 149 148 151 154 158 161 159 155 154 156 170 183 181 169 155 160 192 227 254 267 265 255 269 311 325 339 358 2 359 3 11 16 24 41 51 44 35 26 12 5 2 347 331 338 344 331 302 306 310 311 313 311 294 262 253 285 315 320 307 300 312 336 345 345 351 355 337 285 267 269 259 244 246 249 252 254 100 94 84
151 158 170 178 175 166 157 148 142 142 146 150 158 163 153 134 126 114 99 124 166 168 151 156 184 213 256 256 250 258 292 311 318 339 357 355 355 4 13 17 19 21 18 14 18 18 8 3 5 3 342 335 332 314 301 315 324 327 326 321 306 284 265 271 300 310 298 288 298 320 335 341 352 0 352 278 247 245 235 220 217 222 222 197 148 130 105
136 134 134 140 145 146 145 142 138 139 139 139 147 150 141 127 126 119 102 97 114 131 137 143 97 90 152 215 255 283 299 304 312 340 348 347 352 358 2 5 2 348 327 331 349 357 356 357 0 1 353 351 352 311 282 304 332 335 330 328 319 297 266 260 287 308 298 286 293 307 326 343 356 4 358 273 227 219 213 205 194 195 200 186 166 151 104
137 131 125 126 130 131 132 134 137 137 134 132 135 138 133 126 125 121 116 119 125 133 153 161 53 39 90 175 323 331 333 349 13 0 348 343 346 351 354 355 353 346 327 314 324 339 348 351 354 356 358 14 33 11 312 315 333 330 325 329 332 318 267 249 272 296 287 268 281 299 322 343 357 6 2 264 203 192 198 196 172 167 177 178 171 183 281
133 133 128 125 125 125 126 129 133 137 137 136 138 141 137 136 145 155 155 152 145 123 195 183 153 46 11 347 10 18 21 27 26 15 3 344 338 347 356 348 335 342 337 319 319 335 344 344 350 359 360 344 320 337 336 334 331 327 324 324 328 322 284 244 252 289 284 254 259 283 314 339 358 8 8 328 224 204 208 221 192 181 193 214 288 306 293
128 134 137 131 126 125 127 127 129 137 141 143 148 151 143 138 184 199 180 155 137 34 311 167 124 46 352 303 355 14 4 338 344 354 352 333 323 330 334 319 314 330 338 331 330 345 346 338 345 2 7 354 330 320 320 320 322 324 323 321 317 305 279 244 229 247 283 275 264 271 292 317 349 12 17 6 284 206 199 228 255 249 253 277 300 306 292
129 135 138 134 134 141 144 142 145 154 156 156 163 163 152 127 207 205 172 151 141 130 72 339 348 359 350 286 287 316 299 286 310 321 313 304 306 304 304 309 313 317 323 324 327 338 343 334 334 350 357 357 354 345 336 335 330 319 316 318 314 304 298 289 252 228 249 282 277 268 279 293 324 5 18 18 19 170 184 198 229 246 257 272 281 285 300
144 142 139 137 143 153 155 155 161 163 162 167 178 176 164 120 9 284 197 180 177 176 188 251 278 304 312 308 310 314 309 302 305 302 289 294 304 302 303 311 315 315 318 322 325 331 334 329 324 330 335 334 334 339 348 354 348 334 323 319 316 324 342 344 320 202 199 341 341 267 271 277 291 339 7 20 45 123 172 184 187 210 239 257 256 299 321
151 153 153 149 144 141 139 144 153 153 146 149 156 159 160 161 341 324 268 226 222 228 236 257 277 297 307 304 303 307 309 305 303 301 297 300 303 302 305 311 314 314 320 322 319 318 320 321 320 323 322 315 308 308 314 328 336 336 327 313 299 319 1 0 350 175 103 5 355 292 271 269 272 297 331 355 34 114 175 183 162 156 154 2 2 343 340
154 160 159 150 147 149 149 147 140 119 115 142 165 185 219 254 298 333 145 160 270 278 270 281 292 299 303 298 288 284 293 298 298 301 304 304 302 302 307 311 309 307 313 316 306 299 308 327 330 324 320 310 296 295 299 307 317 323 320 302 281 275 327 346 282 245 285 318 329 334 306 278 272 279 290 306 353 50 183 218 211 190 136 42 3 352 3
162 165 160 152 157 167 165 155 121 83 66 182 198 205 220 221 213 189 179 191 251 264 258 276 295 300 305 309 305 298 297 297 300 307 309 309 308 309 311 310 306 301 302 301 287 279 303 335 333 326 329 333 323 312 307 304 306 310 310 296 273 261 262 278 281 273 272 280 294 310 314 303 290 280 274 275 292 343 84 221 234 221 208 224 319 347 11
168 170 171 176 176 169 165 158 126 90 56 205 178 168 177 193 214 256 258 258 269 269 264 285 297 297 300 306 310 309 305 302 303 309 309 309 311 312 310 307 304 300 296 284 261 251 315 341 334 331 345 353 347 335 324 314 307 305 300 287 272 262 256 263 280 280 267 259 268 281 286 289 291 277 262 260 267 274 250 305 259 227 211 230 268 333 44
173 175 178 181 178 172 181 189 170 148 157 194 174 160 165 184 210 251 284 304 325 335 321 316 309 299 295 296 299 303 307 304 302 305 309 311 311 309 307 314 323 317 291 265 251 254 308 328 323 321 330 337 341 339 333 325 314 302 288 273 264 256 252 257 271 274 259 250 254 262 259 251 261 267 253 249 251 247 218 214 259 248 190 211 318 351 118
173 181 179 170 161 158 165 169 170 169 179 186 164 152 155 174 196 170 131 111 99 195 265 314 318 314 307 299 294 300 307 305 300 302 311 316 313 304 298 307 336 329 278 263 266 279 293 302 305 307 312 320 330 336 336 332 320 302 278 254 245 251 255 256 257 255 245 244 248 253 253 251 257 271 249 231 231 231 225 229 254 259 207 113 359 346 212
175 180 171 159 160 169 168 165 162 150 143 151 153 149 151 166 179 170 157 163 241 260 284 313 318 317 311 300 292 295 298 297 297 303 309 313 311 305 296 287 282 282 270 266 271 276 281 287 294 297 299 306 317 325 331 333 325 304 269 241 242 257 264 261 256 254 254 251 252 258 264 259 249 253 241 214 211 216 226 234 245 254 247 248 296 313 286
178 179 174 172 175 175 173 174 172 152 140 150 156 153 156 169 175 171 162 259 263 268 280 273 270 305 315 306 297 294 289 287 292 300 303 303 303 300 289 273 259 265 273 273 275 280 286 291 293 291 290 296 307 313 321 328 323 301 260 242 249 265 277 276 270 262 254 249 252 268 279 264 236 206 220 232 217 209 217 224 232 258 270 257 254 270 279
178 179 182 183 176 164 168 180 186 175 159 153 145 134 145 174 192 198 345 310 283 279 274 268 275 296 306 305 307 312 310 304 300 300 301 300 297 291 281 270 259 255 259 262 266 277 291 297 294 288 287 292 299 305 314 323 320 291 254 244 252 271 293 295 281 258 248 252 263 286 290 267 236 207 210 249 245 234 220 215 225 258 268 260 257 260 258
179 178 181 183 177 167 165 175 187 189 182 171 161 156 162 258 259 238 234 273 300 288 271 273 285 295 300 304 312 320 326 325 317 311 308 304 296 287 280 269 254 244 247 254 257 261 269 278 281 279 281 285 289 297 310 322 323 305 279 268 264 266 277 285 277 267 266 273 282 290 279 255 235 222 224 238 238 231 220 212 224 258 260 262 266 263 249
177 170 165 167 171 169 159 154 170 181 182 176 170 163 126 79 202 207 218 301 325 319 306 296 292 289 289 297 307 316 320 320 318 314 309 302 293 287 283 274 262 260 269 276 274 270 269 269 271 272 269 266 271 287 308 319 318 312 311 303 283 268 266 270 272 271 270 273 279 278 257 238 235 242 247 234 218 217 220 222 232 260 267 270 268 258 248